| time (UTC) | temp C | wind direction | speed KPH | gust KPH | rain 1hr cm | rain 24hr cm | rain mn cm | humidity % | barometer mb |
| 20260505031221 | 10 | 203 | 8.0 | 8.0 | 0.00 | 0.00 | 0.00 | 84 | 1013.2 |
| 20260505030223 | 10 | 90 | 4.8 | 4.8 | 0.00 | 0.00 | 0.00 | 83 | 1013.2 |
| 20260505025226 | 10 | 158 | 11.3 | 14.5 | 0.00 | 0.00 | 0.00 | 82 | 1013.4 |
| 20260505024249 | 11 | 203 | 8.0 | 11.3 | 0.00 | 0.00 | 0.00 | 82 | 1013.4 |
| 20260505023251 | 11 | 212 | 8.0 | 11.3 | 0.00 | 0.00 | 0.00 | 81 | 1013.4 |
| 20260505022237 | 11 | 270 | 4.8 | 6.4 | 0.00 | 0.00 | 0.00 | 80 | 1013.4 |
| 20260505021218 | 11 | 101 | 8.0 | 8.0 | 0.00 | 0.00 | 0.00 | 79 | 1013.4 |
| 20260505020242 | -17 | 115 | 8.0 | 9.7 | 0.00 | 0.00 | 0.00 | 1013.4 | |
| 20260505015218 | 11 | 171 | 8.0 | 11.3 | 0.00 | 0.00 | 0.00 | 77 | 1013.4 |
| 20260505014227 | 11 | 146 | 8.0 | 9.7 | 0.00 | 0.00 | 0.00 | 76 | 1013.2 |
| 20260505013229 | -17 | 149 | 6.4 | 8.0 | 0.00 | 0.00 | 0.00 | 1013.0 | |
| 20260505012231 | 11 | 235 | 12.9 | 14.5 | 0.00 | 0.00 | 0.00 | 75 | 1013.0 |
| 20260505011216 | 12 | 173 | 8.0 | 12.9 | 0.00 | 0.00 | 0.00 | 74 | 1012.9 |
| 20260505010218 | -17 | 180 | 9.7 | 12.9 | 0.00 | 0.00 | 0.00 | 1012.7 | |
| 20260505005220 | 12 | 113 | 6.4 | 9.7 | 0.00 | 0.00 | 0.00 | 73 | 1012.3 |
| 20260505004222 | 12 | 248 | 8.0 | 8.0 | 0.00 | 0.00 | 0.00 | 71 | 1012.2 |
| 20260505003225 | 12 | 158 | 4.8 | 6.4 | 0.00 | 0.00 | 0.00 | 69 | 1011.9 |
| 20260505002249 | 12 | 45 | 6.4 | 9.7 | 0.00 | 0.00 | 0.00 | 68 | 1011.9 |
| 20260505001231 | 13 | 338 | 6.4 | 8.0 | 0.00 | 0.00 | 0.00 | 66 | 1011.7 |
| 20260505000233 | 13 | 111 | 14.5 | 17.7 | 0.00 | 0.00 | 0.00 | 64 | 1011.7 |
| 20260504235217 | 13 | 225 | 9.7 | 9.7 | 0.00 | 0.00 | 0.00 | 62 | 1011.5 |
| 20260504234220 | -17 | 143 | 17.7 | 20.9 | 0.00 | 0.00 | 0.00 | 1011.4 | |
| 20260504233245 | 14 | 113 | 16.1 | 16.1 | 0.00 | 0.00 | 0.00 | 56 | 1011.3 |
| 20260504232225 | 15 | 113 | 12.9 | 17.7 | 0.00 | 0.00 | 0.00 | 53 | 1011.3 |
| 20260504231221 | -17 | 158 | 16.1 | 16.1 | 0.00 | 0.00 | 0.00 | 1011.2 | |
| 20260504230218 | 16 | 225 | 16.1 | 16.1 | 0.00 | 0.00 | 0.00 | 48 | 1010.9 |
| 20260504225232 | 17 | 180 | 12.9 | 19.3 | 0.00 | 0.00 | 0.00 | 46 | 1011.0 |
| 20260504224216 | 17 | 255 | 11.3 | 12.9 | 0.00 | 0.00 | 0.00 | 45 | 1010.9 |
| 20260504223218 | 17 | 248 | 12.9 | 14.5 | 0.00 | 0.00 | 0.00 | 44 | 1010.8 |
| 20260504222241 | 18 | 90 | 12.9 | 14.5 | 0.00 | 0.00 | 0.00 | 43 | 1010.8 |
| 20260504221344 | 19 | 146 | 11.3 | 14.5 | 0.00 | 0.00 | 0.00 | 40 | 1010.6 |
| 20260504220226 | 20 | 270 | 17.7 | 22.5 | 0.00 | 0.00 | 0.00 | 41 | 1010.7 |
| 20260504215229 | 19 | 263 | 16.1 | 16.1 | 0.00 | 0.00 | 0.00 | 41 | 1010.8 |
| 20260504214231 | 20 | 260 | 16.1 | 19.3 | 0.00 | 0.00 | 0.00 | 40 | 1010.7 |
| 20260504213235 | 20 | 293 | 19.3 | 20.9 | 0.00 | 0.00 | 0.00 | 41 | 1010.6 |
| 20260504212217 | 20 | 81 | 9.7 | 16.1 | 0.00 | 0.00 | 0.00 | 40 | 1010.6 |
| 20260504211219 | 20 | 138 | 19.3 | 20.9 | 0.00 | 0.00 | 0.00 | 40 | 1010.7 |
| 20260504210222 | 21 | 270 | 11.3 | 12.9 | 0.00 | 0.00 | 0.00 | 39 | 1010.6 |
| 20260504205244 | 22 | 346 | 11.3 | 11.3 | 0.00 | 0.00 | 0.00 | 37 | 1010.5 |
| 20260504204227 | 21 | 144 | 8.0 | 11.3 | 0.00 | 0.00 | 0.00 | 39 | 1010.5 |
| 20260504203244 | 21 | 243 | 11.3 | 12.9 | 0.00 | 0.00 | 0.00 | 38 | 1010.4 |
| 20260504202221 | 21 | 163 | 12.9 | 14.5 | 0.00 | 0.00 | 0.00 | 38 | 1010.4 |
| 20260504201218 | 21 | 180 | 11.3 | 12.9 | 0.00 | 0.00 | 0.00 | 37 | 1010.3 |
| 20260504200220 | 22 | 270 | 11.3 | 14.5 | 0.00 | 0.00 | 0.00 | 37 | 1010.4 |
| 20260504195243 | 21 | 68 | 12.9 | 14.5 | 0.00 | 0.00 | 0.00 | 37 | 1010.4 |
| 20260504194225 | 21 | 158 | 14.5 | 17.7 | 0.00 | 0.00 | 0.00 | 36 | 1010.5 |
| 20260504193228 | 21 | 155 | 16.1 | 17.7 | 0.00 | 0.00 | 0.00 | 35 | 1010.5 |
| 20260504192230 | 21 | 14.5 | 16.1 | 0.00 | 0.00 | 0.00 | 35 | 1010.5 | |
| 20260504191252 | 21 | 135 | 14.5 | 16.1 | 0.00 | 0.00 | 0.00 | 34 | 1010.5 |
| 20260504190217 | 21 | 248 | 12.9 | 14.5 | 0.00 | 0.00 | 0.00 | 33 | 1010.8 |
| 20260504185219 | 21 | 248 | 16.1 | 17.7 | 0.00 | 0.00 | 0.00 | 32 | 1010.8 |
| 20260504184222 | 21 | 23 | 17.7 | 25.7 | 0.00 | 0.00 | 0.00 | 31 | 1010.8 |
| 20260504183224 | 21 | 16.1 | 16.1 | 0.00 | 0.00 | 0.00 | 31 | 1011.0 | |
| 20260504182228 | 21 | 180 | 16.1 | 19.3 | 0.00 | 0.00 | 0.00 | 32 | 1011.0 |
| 20260504181250 | 21 | 17.7 | 20.9 | 0.00 | 0.00 | 0.00 | 30 | 1011.2 | |
| 20260504180251 | 22 | 278 | 11.3 | 12.9 | 0.00 | 0.00 | 0.00 | 33 | 1011.2 |
| 20260504175216 | 22 | 216 | 11.3 | 14.5 | 0.00 | 0.00 | 0.00 | 31 | 1011.2 |
| 20260504174240 | 22 | 174 | 25.7 | 30.6 | 0.00 | 0.00 | 0.00 | 30 | 1011.2 |
| 20260504173221 | 21 | 23 | 9.7 | 11.3 | 0.00 | 0.00 | 0.00 | 31 | 1011.2 |
| 20260504172218 | 21 | 90 | 14.5 | 17.7 | 0.00 | 0.00 | 0.00 | 31 | 1011.2 |
| 20260504171226 | 21 | 225 | 16.1 | 17.7 | 0.00 | 0.00 | 0.00 | 31 | 1011.3 |
| 20260504170250 | 21 | 225 | 12.9 | 14.5 | 0.00 | 0.00 | 0.00 | 33 | 1011.5 |
| 20260504160245 | 21 | 146 | 19.3 | 24.1 | 0.00 | 0.00 | 0.00 | 31 | 1011.9 |
| 20260504150222 | 20 | 158 | 14.5 | 20.9 | 0.00 | 0.00 | 0.00 | 35 | 1012.4 |
| 20260504141238 | 19 | 132 | 9.7 | 14.5 | 0.00 | 0.00 | 0.00 | 39 | 1013.2 |
| 20260504140219 | 18 | 54 | 8.0 | 9.7 | 0.00 | 0.00 | 0.00 | 39 | 1013.2 |
| 20260504130217 | 16 | 200 | 6.4 | 8.0 | 0.00 | 0.00 | 0.00 | 44 | 1013.4 |
| 20260504120224 | 11 | 225 | 9.7 | 11.3 | 0.00 | 0.00 | 0.00 | 53 | 1013.7 |
| 20260504110247 | 6 | 248 | 1.6 | 3.2 | 0.00 | 0.00 | 0.00 | 73 | 1013.7 |
| 20260504100222 | 3 | 0.0 | 0.0 | 0.00 | 0.00 | 0.00 | 77 | 1013.4 | |
| 20260504081232 | 4 | 0.0 | 0.0 | 0.00 | 0.00 | 0.00 | 75 | 1013.0 | |
| 20260504080216 | 4 | 0.0 | 0.0 | 0.00 | 0.00 | 0.00 | 75 | 1013.2 | |
| 20260504070232 | 2 | 0.0 | 0.0 | 0.00 | 0.00 | 0.00 | 81 | 1012.9 | |
| 20260504050226 | -17 | 0.0 | 0.0 | 0.00 | 0.00 | 0.00 | 1013.0 | ||
| 20260504045228 | 2 | 0.0 | 0.0 | 0.00 | 0.00 | 0.00 | 80 | 1013.2 | |
| 20260504044232 | 2 | 0.0 | 0.0 | 0.00 | 0.00 | 0.00 | 80 | 1013.2 | |
| 20260504043216 | 2 | 0.0 | 0.0 | 0.00 | 0.00 | 0.00 | 78 | 1013.0 | |
| 20260504042217 | 2 | 0.0 | 0.0 | 0.00 | 0.00 | 0.00 | 78 | 1013.0 | |
| 20260504041220 | 2 | 0.0 | 0.0 | 0.00 | 0.00 | 0.00 | 78 | 1012.9 | |
| 20260504040223 | 2 | 0.0 | 0.0 | 0.00 | 0.00 | 0.00 | 77 | 1012.9 | |
| 20260504035225 | 2 | 0.0 | 0.0 | 0.00 | 0.00 | 0.00 | 78 | 1012.9 | |
| 20260504034228 | 2 | 0.0 | 0.0 | 0.00 | 0.00 | 0.00 | 78 | 1012.7 | |
| 20260504033224 | 2 | 0.0 | 0.0 | 0.00 | 0.00 | 0.00 | 77 | 1012.7 | |
| 20260504032215 | 2 | 0.0 | 0.0 | 0.00 | 0.00 | 0.00 | 77 | 1012.7 |